Regional Weather Roundup
Issued by NWS Cleveland, OH

Home | Current Version | Previous Version | Graphics & Text | Print | Product List | Glossary On
Versions: 1 2 3 4 5 6 7 8 9 10 11 12 13 14 15 16 17 18 19 20 21 22 23 24 25 26 27 28 29 30 31 32 33 34 35 36 37 38 39 40 41 42 43 44 45 46 47 48 49 50
000
ASUS41 KCLE 031000
RWRCLE
OHIO REGIONAL WEATHER ROUNDUP
NATIONAL WEATHER SERVICE WILMINGTON, OH
600 AM EDT FRI JUL 03 2015

NOTE: "FAIR" INDICATES FEW OR NO CLOUDS BELOW 12,000 FEET WITH NO
SIGNIFICANT WEATHER AND/OR OBSTRUCTIONS TO VISIBILITY.

OHZ001>008-015>018-024>027-034-035-043-044-031100-
   NORTHWEST OHIO

CITY           SKY/WX    TMP DP  RH WIND       PRES   REMARKS
DEFIANCE       PTCLDY    57  55  93 NE3       29.97S FOG
FINDLAY        PTCLDY    60  55  83 E7        29.95S
TOLEDO EXPRESS PTCLDY    53  52  96 CALM      29.97S
TOLEDO EXEC    CLEAR     58  53  84 NE3       29.98S
LIMA           CLEAR     57  55  93 E6        29.95F
$$

OHZ009>014-019>023-028>033-038-089-031100-
   NORTHEAST OHIO

CITY           SKY/WX    TMP DP  RH WIND       PRES   REMARKS
CLE-HOPKINS    PTCLDY    54  50  86 SE3       30.00S
CLE-LAKEFRONT  CLEAR     60  54  80 E6        29.97S
CUY CO. ARPT   NOT AVBL
LORAIN-ELYRIA  FOG       54  53  97 CALM      29.98F VSB 1/2
ASHTABULA      CLEAR     50  48  93 CALM      30.01R
AKRON-CANTON   PTCLDY    53  49  86 NE6       29.98S
WOOSTER        NOT AVBL
MANSFIELD      CLEAR     54  51  90 NE5       29.97S
YOUNGSTOWN     PTCLDY    51  49  92 E6        29.98S
$$

OHZ042-051>053-060>062-070>072-077>081-031100-
  SOUTHWEST OHIO

CITY           SKY/WX    TMP DP  RH WIND       PRES   REMARKS
CINC-COVINGTON CLOUDY    68  64  87 NE6       29.89S
CINC-LUNKEN    CLOUDY    66  64  93 NE6       29.89R
HAMILTON       CLOUDY    66  61  84 E6        29.91R
DAYTON         NOT AVBL
WRIGHT-PAT AFB MOCLDY    62  56  79 NE6       29.92R
DAYTON GENERAL CLOUDY    64  57  78 E9        29.91R
WILMINGTON     CLOUDY    62  57  83 NE6       29.91R
$$

OHZ036-037-039>041-045>050-054>059-063>069-073>076-082>088-031100-
  CENTRAL AND SOUTHEAST OHIO

CITY           SKY/WX    TMP DP  RH WIND       PRES   REMARKS
COLUMBUS       PTCLDY    62  54  74 E10       29.92F
OSU AIRPORT    PTCLDY    60  54  80 NE8       29.93F
BOLTON FIELD   NOT AVBL
RICKENBACK AFB NOT AVBL
NEWARK         MOCLDY    59  54  83 NE3       29.95R
MARION         CLEAR     55  52  89 NE5       29.96S
LANCASTER      PTCLDY    60  56  86 E3        29.94R
ZANESVILLE     PTCLDY    59  54  83 NE3       29.95R
NEW PHILLY     CLEAR     53  52  96 CALM      29.97F
$$



USA.gov is the U.S. government's official web portal to all federal, state and local government web resources and services.